Tracking 17784 objects as of 24-July-2016
HD Live streaming from Space Station
objects crossing your sky now

COSMOS 1596

Track COSMOS 1596 now!
COSMOS 1596 is classified as:


NORAD ID: 15267
Int'l Code: 1984-096A
Perigee: 4,724.0 km
Apogee: 35,630.7 km
Inclination: 68.1 °
Period: 717.5 minutes
Semi major axis: 26548 km
RCS: 8.4284 m2 (large)
Launch date: September 7, 1984
Source: Commonwealth of Independent States (former USSR) (CIS)
Launch site: PLESETSK MISSILE AND SPACE COMPLEX (PKMTR)
Your satellite tracking list
Your tracking list is empty





NASA's NSSDC Master Catalog

Two Line Element Set (TLE):
1 15267U 84096A   16205.14342194  .00000793  00000-0 -97033+0 0  9991
2 15267  68.0684  23.0586 5820816  97.6365 339.6596  2.00699690233533
Source of the keplerian elements: AFSPC

N2YO: 866